Showing default

HERMES-1, 63242

Orbit data source: Space-Track

HERMES-1, 63242 is a payload satellite owned by ASI (IT) in SSO that was launched on Sat, 15 Mar 2025 UTC via an FALCON 9 launch vehicle from the Air Force Western Test Range (AFWTR). Payload-class satellites include a variety of spacecraft equipped with specific instruments for various scientific and technological missions. These include communications satellites like Starlink; space stations such as the ISS; scientific satellites like the Hubble; Earth observation satellites from companies like Planet Labs, Umbra, and HawkEye 360; GPS; miniature CubeSats for education and research; and military/defense satellites.

Loading next visibility...
Identifier
63242, 2025-052AJ
Orbit
SSO
Country
Flag of ITIT
Related business
Manufacturer
MILANP/INAFI
Mission
Operational Civil Astronomy
Bus & Motor
CUBESAT 3U, Unknown motor
Mass
5 kg wet, 5 kg dry
Launch date (UTC)
2025-03-15 (1 year ago)
Launch vehicle
FALCON 9
Launch site
Air Force Western Test Range (AFWTR)
Object type
Payload
Rocket body
Debris
Shape & HBR
Box, 0.1 m
Radar Cross Section
0.035 m², Medium (>0.1 m² and < 1m²)

Expand to show TLE details & history
Last TLE update: 6 hours ago

TLE from 6 hours ago
0 HERMES-1
1 63242U 25052AJ  26249.62016988  .00002868  00000-0  12778-3 0  9996
2 63242  97.3772 139.7534 0005353 256.3517 103.7123 15.22222622 82183
Epoch: 2026-09-06T14:53Z
TLE epoch observation values (Epoch: 2026-09-06T14:53:02.677Z)
Latitude
-0.00008°
Longitude
-69.22042°
Altitude
503.107 km
Speed
7.612 km/s
True Right ascension
09h 19m 00s
True Declination
0° 00' 00"
Sunlit
Object was in daylight at epoch
Visualization orbit readout
Latitude
Unknown
Longitude
Unknown
Altitude
Unknown
Speed
Unknown
Apparent Right ascension
Unknown
Apparent Declination
Unknown
Sunlit
N/A
Visualization observer readout
Local Sidereal Time
13:08:41
Azimuth
Unknown
Elevation
Unknown
Doppler factor
Unknown
Orbital elements
Apogee altitude
499.779 km
Perigee altitude
492.42 km
Semi-major axis
6,874.237 km
Eccentricity
0.00054
Inclination
97.3772°
RAAN
139.7534°
Arg. of periapsis
256.3517°
True anomaly
103.77188°
Mean anomaly
103.7123°
Eccentric anomaly
103.74209°
Mean motion
3.80808 °/min
Orbital period
94.54 mins
BSTAR
0.00012778
Loading maneuver chart data...
Computing Atmospheric mass density...
Loading historical data...
Loading historical data...
Loading historical data...
Loading historical data...
Loading historical data...
Loading historical data...
Loading historical data...

Documentation

Showing up to 5 results
|